�ϑ��N����,2018/9/27,,,
�ϑ���,�X���˗F,,,
�ϑ��n�_,23,,,
���x�v�ԍ�,A001,,,
,,,,
����,�C��,����,����,���l
9:30:00,20.8,0,0,11:13�܂Ŗ؉A�ɓ����Ă����B�󗓂͓܂�B
9:31:00,20.8,2,2,
9:32:00,20.8,2,2,
9:33:00,20.5,0,0,
9:34:00,20.5,0,0,
9:35:00,20.5,2,3,
9:36:00,20.5,2,3,
9:37:00,20.5,0,0,
9:38:00,20.5,0,0,
9:39:00,20.5,2,3,
9:40:00,20.5,0,0,
9:41:00,20.9,2,1,
9:42:00,20.9,3,2,
9:43:00,20.9,3,2,
9:44:00,20.9,0,0,
9:45:00,20.9,0,0,
9:46:00,20.9,0,0,����
9:47:00,20.9,0,0,
9:48:00,20.9,3,2,
9:49:00,20.9,3,1,
9:50:00,20.8,0,0,
9:51:00,20.8,3,2,
9:52:00,20.8,3,1,
9:53:00,20.7,0,0,
9:54:00,20.7,0,0,
9:55:00,20.5,3,1,
9:56:00,20.5,0,0,
9:57:00,20.5,0,0,
9:58:00,20.5,0,0,
9:59:00,20.9,0,0,
10:00:00,20.9,3,3,
10:01:00,20.9,0,0,
10:02:00,20.9,7,2,
10:03:00,21,0,0,
10:04:00,21,0,0,
10:05:00,20.9,3,2,
10:06:00,21,3,1,
10:07:00,21,0,0,
10:08:00,21,0,0,
10:09:00,21,0,0,
10:10:00,21,0,0,
10:11:00,21,3,3,
10:12:00,21,3,2,
10:13:00,21,7,2,
10:14:00,21.1,0,0,����
10:15:00,21.1,3,1,
10:16:00,21,3,1,
10:17:00,21,3,1,����
10:18:00,21.1,0,0,
10:19:00,21.1,0,0,
10:20:00,21.1,0,0,����
10:21:00,21.5,0,0,����
10:22:00,21.7,0,0,����
10:23:00,21.7,3,2,�_���������Ă���
10:24:00,21.5,0,0,�_���������Ă���
10:25:00,21.6,0,0,�_���������Ă���
10:26:00,21.8,0,0,
10:27:00,21.8,0,0,
10:28:00,21.8,0,0,
10:29:00,21.7,0,0,
10:30:00,21.6,0,0,
10:31:00,21.5,0,0,
10:32:00,21.6,0,0,
10:33:00,21.7,0,0,
10:34:00,21.7,0,0,
10:35:00,21.6,0,0,
10:36:00,21.6,0,0,
10:37:00,21.7,0,0,
10:38:00,21.8,0,0,
10:39:00,21.8,0,0,
10:40:00,21.8,7,1,
10:41:00,21.8,7,1,
10:42:00,21.8,0,0,
10:43:00,21.8,0,0,����
10:44:00,21.9,0,0,�_���������Ă���
10:45:00,21.9,7,1,�_���������Ă���
10:46:00,22,7,1,
10:47:00,22,0,0,
10:48:00,22,2,1,
10:49:00,22,2,1,
10:50:00,22,0,0,
10:51:00,22,3,2,
10:52:00,21.9,2,2,
10:53:00,22,2,2,
10:54:00,22,0,0,
10:55:00,22,2,2,
10:56:00,22,2,2,
10:57:00,22,2,1,����
10:58:00,22,3,1,����
10:59:00,22,3,1,
11:00:00,22,2,1,
11:01:00,22,2,3,����
11:02:00,22,3,2,����
11:03:00,22,3,2,
11:04:00,22,3,1,
11:05:00,22.1,3,1,����
11:06:00,22.1,2,2,
11:07:00,22.1,2,1,
11:08:00,22.1,3,1,
11:09:00,22.2,3,3,
11:10:00,22.2,3,2,
11:11:00,22.2,3,3,
11:12:00,22.2,3,2,
11:13:00,22.3,3,1,�����ɂȂ����B��������͐���B
11:14:00,22.4,2,1,
11:15:00,22.5,2,3,
11:16:00,22.6,2,3,����
11:17:00,22.6,3,3,
11:18:00,22.8,3,2,
11:19:00,22.8,2,3,
11:20:00,22.8,2,2,
11:21:00,23,3,1,
11:22:00,23.1,3,2,
11:23:00,23.1,3,1,
11:24:00,23.1,2,2,
11:25:00,23.2,3,1,
11:26:00,23.3,2,2,
11:27:00,23.3,0,0,
11:28:00,23.2,2,3,
11:29:00,23.1,2,2,
11:30:00,23.1,2,3,
